,,Stat6,,Stat2,,Stat8,,Stat9,,Stat10,,Wind1,,Wind1,
time,status,PA1M_AVG,status,PR1M_SUM,status,RH1M_AVG,status,SR1M_AVG,status,TA1M_AVG,status,W1dAve1m,status,W1sAve1m,
2007-02-24, 15:03:00,VALID,913.068,VALID,0,VALID,62.2547,VALID,558.308,VALID,29.1893,VALID,118,VALID,1.02054,
2007-02-24, 15:04:00,VALID,913.023,VALID,0,VALID,63.4976,VALID,580.405,VALID,29.1874,VALID,111,VALID,0.512195,
2007-02-24, 15:05:00,VALID,913.003,VALID,0,VALID,63.5077,VALID,588.179,VALID,29.4399,VALID,207,VALID,0.680273,
2007-02-24, 15:06:00,VALID,912.99,VALID,0,VALID,62.9902,VALID,605.806,VALID,29.6747,VALID,129,VALID,0.728125,
2007-02-24, 15:07:00,VALID,912.972,VALID,0,VALID,62.8491,VALID,621.157,VALID,29.9087,VALID,127,VALID,0.668679,
2007-02-24, 15:08:00,VALID,912.985,VALID,0,VALID,62.5045,VALID,674.54,VALID,30.0873,VALID,150,VALID,0.671689,
2007-02-24, 15:09:00,VALID,912.955,VALID,0,VALID,60.5131,VALID,664.808,VALID,30.1174,VALID,65,VALID,0.532609,
2007-02-24, 15:10:00,VALID,912.968,VALID,0,VALID,61.4655,VALID,536.146,VALID,30.4104,VALID,92,VALID,0.504729,
2007-02-24, 15:11:00,VALID,912.982,VALID,0,VALID,60.9658,VALID,485.875,VALID,30.6673,VALID,43,VALID,0.784598,
2007-02-24, 15:12:00,VALID,913.007,VALID,0,VALID,60.92,VALID,418.189,VALID,30.5989,VALID,133,VALID,1.24564,
2007-02-24, 15:13:00,VALID,912.997,VALID,0,VALID,60.6873,VALID,402.93,VALID,29.6978,VALID,133,VALID,1.68691,
2007-02-24, 15:14:00,VALID,912.988,VALID,0,VALID,64.8938,VALID,429.105,VALID,29.3336,VALID,183,VALID,1.38003,
2007-02-24, 15:15:00,VALID,912.968,VALID,0,VALID,64.2745,VALID,518.215,VALID,29.4301,VALID,269,VALID,1.3231,
2007-02-24, 15:16:00,VALID,912.91,VALID,0,VALID,63.8447,VALID,658.386,VALID,29.6649,VALID,279,VALID,1.79781,
2007-02-24, 15:17:00,VALID,912.876,VALID,0,VALID,63.0347,VALID,678.609,VALID,29.9192,VALID,258,VALID,2.11849,
2007-02-24, 15:18:00,VALID,912.875,VALID,0,VALID,63.2623,VALID,665.84,VALID,29.9003,VALID,202,VALID,0.632994,
2007-02-24, 15:19:00,VALID,912.863,VALID,0,VALID,64.23,VALID,588.3,VALID,30.0431,VALID,261,VALID,2.0119,
2007-02-24, 15:20:00,VALID,912.885,VALID,0,VALID,64.2427,VALID,333.938,VALID,30.1766,VALID,238,VALID,1.90146,
2007-02-24, 15:21:00,VALID,912.893,VALID,0,VALID,62.2527,VALID,291.136,VALID,30.0919,VALID,221,VALID,1.84354,
2007-02-24, 15:22:00,VALID,912.915,VALID,0,VALID,64.4754,VALID,272.719,VALID,29.8832,VALID,115,VALID,0.789418,
2007-02-24, 15:23:00,VALID,912.901,VALID,0,VALID,64.6077,VALID,257.005,VALID,29.5545,VALID,175,VALID,1.50036,
2007-02-24, 15:24:00,VALID,912.9,VALID,0,VALID,67.1445,VALID,244.205,VALID,29.2644,VALID,224,VALID,1.69455,
2007-02-24, 15:25:00,VALID,912.892,VALID,0,VALID,67.1407,VALID,229.796,VALID,29.2558,VALID,132,VALID,1.14293,
2007-02-24, 15:26:00,VALID,912.881,VALID,0,VALID,67.1115,VALID,214.097,VALID,29.2388,VALID,340,VALID,0.93968,
2007-02-24, 15:27:00,VALID,912.886,VALID,0,VALID,69.0341,VALID,197.669,VALID,29.1354,VALID,207,VALID,0.881138,
2007-02-24, 15:28:00,VALID,912.879,VALID,0,VALID,69.7043,VALID,184.429,VALID,29.0829,VALID,231,VALID,1.42448,
2007-02-24, 15:29:00,VALID,912.879,VALID,0,VALID,68.8014,VALID,170.021,VALID,28.9857,VALID,214,VALID,1.73331,
2007-02-24, 15:30:00,VALID,912.866,VALID,0,VALID,69.8937,VALID,158.937,VALID,28.7221,VALID,184,VALID,1.37424,
2007-02-24, 15:31:00,VALID,912.826,VALID,0,VALID,69.4169,VALID,150.525,VALID,28.3088,VALID,190,VALID,1.94422,
2007-02-24, 15:32:00,VALID,912.815,VALID,0,VALID,70.583,VALID,143.83,VALID,28.0908,VALID,222,VALID,1.62666,
2007-02-24, 15:33:00,VALID,912.818,VALID,0,VALID,72.1597,VALID,137.817,VALID,28.0272,VALID,200,VALID,0.944141,
2007-02-24, 15:34:00,VALID,912.822,VALID,0,VALID,72.3619,VALID,132.169,VALID,27.8095,VALID,189,VALID,2.52077,
2007-02-24, 15:35:00,VALID,912.834,VALID,0,VALID,72.5145,VALID,122.543,VALID,27.4061,VALID,206,VALID,2.8548,
2007-02-24, 15:36:00,VALID,912.858,VALID,0,VALID,75.2675,VALID,113.388,VALID,26.9432,VALID,241,VALID,2.17751,
2007-02-24, 15:37:00,VALID,912.881,VALID,0,VALID,75.5969,VALID,104.885,VALID,26.7068,VALID,276,VALID,2.37413,
2007-02-24, 15:38:00,VALID,912.903,VALID,0,VALID,76.426,VALID,98.007,VALID,26.4329,VALID,258,VALID,2.47351,
2007-02-24, 15:39:00,VALID,912.93,VALID,0,VALID,77.592,VALID,93.8772,VALID,26.1702,VALID,266,VALID,2.22887,
2007-02-24, 15:40:00,VALID,912.961,VALID,0,VALID,79.6889,VALID,89.6563,VALID,26.0066,VALID,260,VALID,1.69271,
2007-02-24, 15:41:00,VALID,912.979,VALID,0,VALID,79.8402,VALID,89.2767,VALID,25.7361,VALID,254,VALID,2.5043,
2007-02-24, 15:42:00,VALID,912.997,VALID,0,VALID,81.3267,VALID,92.6322,VALID,25.4637,VALID,223,VALID,1.25018,
2007-02-24, 15:43:00,VALID,912.991,VALID,0,VALID,82.9493,VALID,96.8835,VALID,25.3466,VALID,266,VALID,2.07104,
2007-02-24, 15:44:00,VALID,912.989,VALID,0,VALID,83.4529,VALID,102.061,VALID,25.2208,VALID,258,VALID,1.68626,
2007-02-24, 15:45:00,VALID,912.979,VALID,0,VALID,84.2502,VALID,108.65,VALID,25.0875,VALID,344,VALID,1.8952,
2007-02-24, 15:46:00,VALID,912.995,VALID,0,VALID,86.2313,VALID,118.125,VALID,25.0644,VALID,30,VALID,1.0665,
2007-02-24, 15:47:00,VALID,913.001,VALID,0,VALID,86.1067,VALID,127.857,VALID,25.1035,VALID,31,VALID,1.97754,
2007-02-24, 15:48:00,VALID,913.015,VALID,0,VALID,84.9508,VALID,140.262,VALID,24.9864,VALID,35,VALID,2.47106,
2007-02-24, 15:49:00,VALID,913.046,VALID,0,VALID,85.7138,VALID,150.465,VALID,24.833,VALID,42,VALID,2.07832,
2007-02-24, 15:50:00,VALID,913.058,VALID,0,VALID,86.567,VALID,156.857,VALID,24.7118,VALID,49,VALID,1.93223,
2007-02-24, 15:51:00,VALID,913.055,VALID,0,VALID,86.7412,VALID,160.015,VALID,24.5838,VALID,49,VALID,2.66055,
2007-02-24, 15:52:00,VALID,913.075,VALID,0,VALID,87.5576,VALID,160.713,VALID,24.4308,VALID,51,VALID,2.8472,
2007-02-24, 15:53:00,VALID,913.116,VALID,0,VALID,87.8285,VALID,160.683,VALID,24.3492,VALID,47,VALID,2.20852,
2007-02-24, 15:54:00,VALID,913.128,VALID,0,VALID,88.2392,VALID,158.922,VALID,24.357,VALID,37,VALID,2.17169,
2007-02-24, 15:55:00,VALID,913.123,VALID,0,VALID,88.1603,VALID,157.737,VALID,24.3755,VALID,41,VALID,1.78525,
2007-02-24, 15:56:00,VALID,913.125,VALID,0,VALID,89.0238,VALID,155.885,VALID,24.4206,VALID,48,VALID,1.69931,
2007-02-24, 15:57:00,VALID,913.115,VALID,0,VALID,88.3981,VALID,154.048,VALID,24.5009,VALID,51,VALID,1.3952,
2007-02-24, 15:58:00,VALID,913.091,VALID,0,VALID,87.0897,VALID,150.966,VALID,24.5458,VALID,41,VALID,1.54887,
2007-02-24, 15:59:00,VALID,913.078,VALID,0,VALID,87.5195,VALID,146.639,VALID,24.5756,VALID,42,VALID,1.62754,
2007-02-24, 16:00:00,VALID,913.069,VALID,0,VALID,87.6924,VALID,142.509,VALID,24.6501,VALID,59,VALID,1.2927,
2007-02-24, 16:01:00,VALID,913.055,VALID,0,VALID,88.6156,VALID,139.487,VALID,24.7375,VALID,37,VALID,1.1901,
2007-02-24, 16:02:00,VALID,913.068,VALID,0,VALID,87.302,VALID,138.273,VALID,24.8237,VALID,81,VALID,1.20145,
2007-02-24, 16:03:00,VALID,913.07,VALID,0,VALID,86.5111,VALID,137.696,VALID,24.7652,VALID,86,VALID,1.58503,
2007-02-24, 16:04:00,VALID,913.08,VALID,0,VALID,87.9429,VALID,137.301,VALID,24.7327,VALID,80,VALID,1.13125,
2007-02-24, 16:05:00,VALID,913.107,VALID,0,VALID,88.3994,VALID,137.286,VALID,24.7353,VALID,111,VALID,0.955171,
2007-02-24, 16:06:00,VALID,913.108,VALID,0,VALID,88.6194,VALID,138.121,VALID,24.7353,VALID,119,VALID,0.820685,
2007-02-24, 16:07:00,VALID,913.108,VALID,0,VALID,88.0395,VALID,140.353,VALID,24.6937,VALID,114,VALID,1.19149,
2007-02-24, 16:08:00,VALID,913.081,VALID,0,VALID,88.3244,VALID,143.526,VALID,24.644,VALID,118,VALID,1.75915,
2007-02-24, 16:09:00,VALID,913.075,VALID,0,VALID,89.301,VALID,147.261,VALID,24.6251,VALID,108,VALID,1.1101,
2007-02-24, 16:10:00,VALID,913.061,VALID,0,VALID,89.5629,VALID,151.406,VALID,24.5962,VALID,95,VALID,1.12252,
2007-02-24, 16:11:00,VALID,913.042,VALID,0,VALID,89.9266,VALID,155.915,VALID,24.6066,VALID,51,VALID,1.20352,
2007-02-24, 16:12:00,VALID,913.045,VALID,0,VALID,89.1853,VALID,160.82,VALID,24.655,VALID,84,VALID,0.987035,
2007-02-24, 16:13:00,VALID,913.037,VALID,0,VALID,88.112,VALID,165.936,VALID,24.7073,VALID,115,VALID,1.62772,
2007-02-24, 16:14:00,VALID,913.043,VALID,0,VALID,87.6453,VALID,171.007,VALID,24.5998,VALID,94,VALID,1.83259,
2007-02-24, 16:15:00,VALID,913.056,VALID,0,VALID,88.772,VALID,175.608,VALID,24.5445,VALID,74,VALID,1.33921,
2007-02-24, 16:16:00,VALID,913.087,VALID,0,VALID,88.2125,VALID,180.026,VALID,24.489,VALID,107,VALID,1.6158,
2007-02-24, 16:17:00,VALID,913.113,VALID,0,VALID,88.1731,VALID,183.868,VALID,24.3791,VALID,110,VALID,1.7247,
2007-02-24, 16:18:00,VALID,913.137,VALID,0,VALID,88.0929,VALID,187.42,VALID,24.2777,VALID,99,VALID,1.48477,
2007-02-24, 16:19:00,VALID,913.137,VALID,0,VALID,87.3605,VALID,190.761,VALID,24.1604,VALID,98,VALID,1.98679,
2007-02-24, 16:20:00,VALID,913.14,VALID,0,VALID,87.7153,VALID,193.403,VALID,24.0893,VALID,120,VALID,1.55885,
2007-02-24, 16:21:00,VALID,913.159,VALID,0,VALID,88.1947,VALID,195.285,VALID,24.0896,VALID,107,VALID,1.57893,
2007-02-24, 16:22:00,VALID,913.169,VALID,0,VALID,87.3376,VALID,196.424,VALID,24.0405,VALID,118,VALID,1.52569,
2007-02-24, 16:23:00,VALID,913.182,VALID,0,VALID,87.7903,VALID,197.047,VALID,24.0444,VALID,116,VALID,1.33781,
2007-02-24, 16:24:00,VALID,913.215,VALID,0,VALID,87.0528,VALID,198.216,VALID,24.0178,VALID,105,VALID,1.68524,
2007-02-24, 16:25:00,VALID,913.255,VALID,0,VALID,87.9162,VALID,200.296,VALID,24.011,VALID,102,VALID,1.127,
2007-02-24, 16:26:00,VALID,913.276,VALID,0,VALID,88.2099,VALID,206.551,VALID,24.0627,VALID,107,VALID,1.47961,
2007-02-24, 16:27:00,VALID,913.315,VALID,0,VALID,87.8679,VALID,233.41,VALID,24.1215,VALID,120,VALID,1.07012,
2007-02-24, 16:28:00,VALID,913.333,VALID,0,VALID,87.6326,VALID,279.521,VALID,24.2192,VALID,159,VALID,1.00534,
2007-02-24, 16:29:00,VALID,913.341,VALID,0,VALID,87.2778,VALID,342.182,VALID,24.3551,VALID,141,VALID,1.51855,
2007-02-24, 16:30:00,VALID,913.36,VALID,0,VALID,87.1125,VALID,387.792,VALID,24.4789,VALID,102,VALID,1.34302,
2007-02-24, 16:31:00,VALID,913.39,VALID,0,VALID,87.0006,VALID,357.137,VALID,24.7031,VALID,90,VALID,0.78054,
2007-02-24, 16:32:00,VALID,913.42,VALID,0,VALID,86.0533,VALID,315.399,VALID,24.8816,VALID,105,VALID,0.767045,
2007-02-24, 16:33:00,VALID,913.435,VALID,0,VALID,85.4912,VALID,278.838,VALID,25.0148,VALID,60,VALID,1.27902,
2007-02-24, 16:34:00,VALID,913.448,VALID,0,VALID,84.8453,VALID,219.001,VALID,25.0503,VALID,64,VALID,1.23666,
2007-02-24, 16:35:00,VALID,913.463,VALID,0,VALID,84.151,VALID,247.606,VALID,25.1094,VALID,70,VALID,0.383575,
2007-02-24, 16:36:00,VALID,913.475,VALID,0,VALID,83.6093,VALID,228.673,VALID,25.2492,VALID,70,VALID,0.0562855,
2007-02-24, 16:37:00,VALID,913.487,VALID,0,VALID,83.4045,VALID,246.604,VALID,25.4403,VALID,70,VALID,0.00407609,
2007-02-24, 16:38:00,VALID,913.475,VALID,0,VALID,82.9557,VALID,190.973,VALID,25.6285,VALID,40,VALID,0.243862,
2007-02-24, 16:39:00,VALID,913.453,VALID,0,VALID,82.742,VALID,177.688,VALID,25.8044,VALID,28,VALID,0.137355,
2007-02-24, 16:40:00,VALID,913.444,VALID,0,VALID,82.3428,VALID,176.428,VALID,25.8918,VALID,319,VALID,0.351935,
2007-02-24, 16:41:00,VALID,913.431,VALID,0,VALID,82.3237,VALID,174.712,VALID,25.8408,VALID,284,VALID,0.369182,
2007-02-24, 16:42:00,VALID,913.402,VALID,0,VALID,81.6052,VALID,171.873,VALID,25.8431,VALID,326,VALID,0.462126,
2007-02-24, 16:43:00,VALID,913.414,VALID,0,VALID,80.7698,VALID,167.637,VALID,25.8762,VALID,24,VALID,0.894259,
2007-02-24, 16:44:00,VALID,913.427,VALID,0,VALID,81.1042,VALID,166.923,VALID,25.8765,VALID,234,VALID,0.735283,
2007-02-24, 16:45:00,VALID,913.429,VALID,0,VALID,81.2123,VALID,171.554,VALID,25.8765,VALID,197,VALID,0.314453,
2007-02-24, 16:46:00,VALID,913.449,VALID,0,VALID,81.2276,VALID,163.401,VALID,25.8821,VALID,229,VALID,0.640988,
2007-02-24, 16:47:00,VALID,913.436,VALID,0,VALID,81.7019,VALID,147.808,VALID,25.7628,VALID,250,VALID,1.13445,
2007-02-24, 16:48:00,VALID,913.427,VALID,0,VALID,81.8659,VALID,136.709,VALID,25.5255,VALID,243,VALID,1.07378,
2007-02-24, 16:49:00,VALID,913.42,VALID,0,VALID,82.7662,VALID,132.488,VALID,25.3984,VALID,279,VALID,0.648633,
2007-02-24, 16:50:00,VALID,913.414,VALID,0,VALID,83.7466,VALID,134.295,VALID,25.3106,VALID,252,VALID,1.53201,
2007-02-24, 16:51:00,VALID,913.45,VALID,0,VALID,84.3328,VALID,134.705,VALID,25.1283,VALID,257,VALID,1.1516,
2007-02-24, 16:52:00,VALID,913.471,VALID,0,VALID,85.6858,VALID,129.224,VALID,25.0863,VALID,282,VALID,0.384549,
2007-02-24, 16:53:00,VALID,913.527,VALID,0,VALID,86.6509,VALID,117.669,VALID,25.2001,VALID,33,VALID,1.12918,
2007-02-24, 16:54:00,VALID,913.585,VALID,0,VALID,86.9027,VALID,103.974,VALID,25.3425,VALID,36,VALID,1.41334,
2007-02-24, 16:55:00,VALID,913.646,VALID,0,VALID,86.478,VALID,93.8924,VALID,25.4562,VALID,36,VALID,1.70713,
2007-02-24, 16:56:00,VALID,913.704,VALID,0,VALID,85.7723,VALID,83.5679,VALID,25.5186,VALID,43,VALID,1.35618,
2007-02-24, 16:57:00,VALID,913.734,VALID,0,VALID,86.2682,VALID,66.4413,VALID,25.5641,VALID,56,VALID,1.15588,
2007-02-24, 16:58:00,VALID,913.764,VALID,0,VALID,86.094,VALID,46.6729,VALID,25.6581,VALID,45,VALID,1.29088,
2007-02-24, 16:59:00,VALID,913.776,VALID,0,VALID,85.4086,VALID,33.5851,VALID,25.675,VALID,347,VALID,0.769614,
2007-02-24, 17:00:00,VALID,913.776,VALID,0,VALID,85.2382,VALID,29.106,VALID,25.6051,VALID,68,VALID,0.74295,
2007-02-24, 17:01:00,VALID,913.754,VALID,0,VALID,85.3526,VALID,30.3662,VALID,25.5511,VALID,89,VALID,0.84375,
2007-02-24, 17:02:00,VALID,913.739,VALID,0,VALID,85.9745,VALID,34.0254,VALID,25.4526,VALID,317,VALID,0.711682,
2007-02-24, 17:03:00,VALID,913.721,VALID,0,VALID,86.3051,VALID,40.3871,VALID,25.3736,VALID,14,VALID,1.37779,
2007-02-24, 17:04:00,VALID,913.702,VALID,0,VALID,86.4844,VALID,51.076,VALID,25.2667,VALID,41,VALID,1.65347,
2007-02-24, 17:05:00,VALID,913.718,VALID,0,VALID,87.2499,VALID,61.0361,VALID,25.1272,VALID,342,VALID,0.753374,
2007-02-24, 17:06:00,VALID,913.732,VALID,0,VALID,87.5474,VALID,56.0713,VALID,25.0235,VALID,57,VALID,0.788132,
2007-02-24, 17:07:00,VALID,913.748,VALID,0,VALID,88.3536,VALID,56.132,VALID,24.9715,VALID,358,VALID,0.932986,
2007-02-24, 17:08:00,VALID,913.75,VALID,0,VALID,88.6308,VALID,59.0168,VALID,24.8864,VALID,256,VALID,0.780887,
2007-02-24, 17:09:00,VALID,913.754,VALID,0,VALID,88.833,VALID,48.4645,VALID,24.8458,VALID,143,VALID,0.702744,
2007-02-24, 17:10:00,VALID,913.764,VALID,0,VALID,89.2145,VALID,29.5312,VALID,24.7971,VALID,135,VALID,1.24668,
2007-02-24, 17:11:00,VALID,913.778,VALID,0,VALID,89.6112,VALID,23.883,VALID,24.683,VALID,93,VALID,1.10047,
2007-02-24, 17:12:00,VALID,913.781,VALID,0,VALID,90.2025,VALID,26.449,VALID,24.5456,VALID,94,VALID,1.20926,
2007-02-24, 17:13:00,VALID,913.766,VALID,0,VALID,90.8511,VALID,25.7202,VALID,24.4351,VALID,130,VALID,1.00953,
2007-02-24, 17:14:00,VALID,913.796,VALID,0,VALID,91.3063,VALID,22.5621,VALID,24.3512,VALID,236,VALID,0.98125,
2007-02-24, 17:15:00,VALID,913.769,VALID,0,VALID,91.1868,VALID,22.3799,VALID,24.2086,VALID,248,VALID,1.89898,
2007-02-24, 17:16:00,VALID,913.767,VALID,0,VALID,91.5606,VALID,23.2454,VALID,24.0627,VALID,310,VALID,1.58825,
2007-02-24, 17:17:00,VALID,913.798,VALID,0,VALID,92.3223,VALID,18.5082,VALID,24.0074,VALID,314,VALID,1.15495,
2007-02-24, 17:18:00,VALID,913.805,VALID,0,VALID,91.5988,VALID,12.8753,VALID,23.8985,VALID,252,VALID,2.35026,
2007-02-24, 17:19:00,VALID,913.837,VALID,0,VALID,92.0972,VALID,9.29207,VALID,23.7331,VALID,285,VALID,1.17283,
2007-02-24, 17:20:00,VALID,913.868,VALID,0,VALID,92.7025,VALID,7.50046,VALID,23.7068,VALID,317,VALID,1.09757,
2007-02-24, 17:21:00,VALID,913.947,VALID,0,VALID,93.056,VALID,6.25545,VALID,23.7357,VALID,42,VALID,1.59284,
2007-02-24, 17:22:00,VALID,913.993,VALID,0,VALID,93.1425,VALID,5.01043,VALID,23.7782,VALID,47,VALID,2.12917,
2007-02-24, 17:23:00,VALID,914.024,VALID,0,VALID,92.7839,VALID,4.93451,VALID,23.7652,VALID,22,VALID,1.81348,
2007-02-24, 17:24:00,VALID,914.07,VALID,0,VALID,92.1634,VALID,5.51147,VALID,23.6902,VALID,38,VALID,1.89008,
2007-02-24, 17:25:00,VALID,914.107,VALID,0,VALID,91.2987,VALID,5.70885,VALID,23.5957,VALID,326,VALID,1.01656,
2007-02-24, 17:26:00,VALID,914.137,VALID,0,VALID,91.2643,VALID,5.28373,VALID,23.459,VALID,308,VALID,1.24123,
2007-02-24, 17:27:00,VALID,914.161,VALID,0,VALID,92.1417,VALID,4.41829,VALID,23.4129,VALID,35,VALID,1.57262,
2007-02-24, 17:28:00,VALID,914.183,VALID,0,VALID,92.9327,VALID,3.3251,VALID,23.4365,VALID,30,VALID,1.09941,
2007-02-24, 17:29:00,VALID,914.199,VALID,0,VALID,94.0212,VALID,2.32302,VALID,23.5009,VALID,53,VALID,0.88151,
2007-02-24, 17:30:00,VALID,914.209,VALID,0,VALID,94.451,VALID,1.91307,VALID,23.5405,VALID,26,VALID,0.9913,
2007-02-24, 17:31:00,VALID,914.237,VALID,0,VALID,94.4688,VALID,2.03454,VALID,23.5369,VALID,38,VALID,1.71761,
2007-02-24, 17:32:00,VALID,914.28,VALID,0.6,VALID,94.6608,VALID,2.50521,VALID,23.4226,VALID,31,VALID,1.66997,
2007-02-24, 17:33:00,VALID,914.308,VALID,0.4,VALID,95.1402,VALID,2.96071,VALID,23.2726,VALID,29,VALID,2.36435,
2007-02-24, 17:34:00,VALID,914.346,VALID,0.4,VALID,95.4861,VALID,3.43138,VALID,23.0257,VALID,39,VALID,2.15449,
2007-02-24, 17:35:00,VALID,914.357,VALID,0.2,VALID,96.3495,VALID,3.82615,VALID,22.7559,VALID,36,VALID,1.07413,
2007-02-24, 17:36:00,VALID,914.387,VALID,0.2,VALID,97.4278,VALID,4.22091,VALID,22.6224,VALID,35,VALID,0.997396,
2007-02-24, 17:37:00,VALID,914.38,VALID,0,VALID,96.4436,VALID,4.60048,VALID,22.4308,VALID,25,VALID,1.69531,
2007-02-24, 17:38:00,VALID,914.365,VALID,0,VALID,96.38,VALID,4.9497,VALID,22.158,VALID,28,VALID,1.84473,
2007-02-24, 17:39:00,VALID,914.342,VALID,0.2,VALID,97.4799,VALID,5.17744,VALID,22.0168,VALID,14,VALID,1.13459,
2007-02-24, 17:40:00,VALID,914.295,VALID,0.2,VALID,97.9987,VALID,5.43556,VALID,21.9616,VALID,33,VALID,1.52415,
2007-02-24, 17:41:00,VALID,914.264,VALID,0.4,VALID,98.1132,VALID,5.7544,VALID,21.8182,VALID,23,VALID,0.989583,
2007-02-24, 17:42:00,VALID,914.252,VALID,0.2,VALID,98.8291,VALID,6.10361,VALID,21.7822,VALID,62,VALID,1.11905,
2007-02-24, 17:43:00,VALID,914.266,VALID,0.2,VALID,98.178,VALID,6.45283,VALID,21.6456,VALID,94,VALID,1.49219,
2007-02-24, 17:44:00,VALID,914.302,VALID,0.2,VALID,98.103,VALID,6.89314,VALID,21.477,VALID,100,VALID,1.40873,
2007-02-24, 17:45:00,VALID,914.36,VALID,0.2,VALID,98.7325,VALID,7.18161,VALID,21.3336,VALID,90,VALID,0.779762,
2007-02-24, 17:46:00,VALID,914.414,VALID,0,VALID,99.2932,VALID,6.90832,VALID,21.2719,VALID,81,VALID,0.38228,
2007-02-24, 17:47:00,VALID,914.481,VALID,0.2,VALID,99.9748,VALID,5.90623,VALID,21.2752,VALID,72,VALID,0.519903,
2007-02-24, 17:48:00,VALID,914.525,VALID,0.2,VALID,100,VALID,5.43556,VALID,21.2947,VALID,53,VALID,1.40873,
2007-02-24, 17:49:00,VALID,914.547,VALID,0,VALID,100,VALID,5.13189,VALID,21.2749,VALID,49,VALID,3.31326,
2007-02-24, 17:50:00,VALID,914.563,VALID,0.2,VALID,99.9392,VALID,5.45074,VALID,21.2462,VALID,87,VALID,2.65799,
2007-02-24, 17:51:00,VALID,914.612,VALID,0,VALID,99.3047,VALID,6.69576,VALID,21.1678,VALID,114,VALID,2.56612,
2007-02-24, 17:52:00,VALID,914.612,VALID,0,VALID,98.9207,VALID,7.97114,VALID,21.0671,VALID,125,VALID,2.54444,
2007-02-24, 17:53:00,VALID,914.571,VALID,0.2,VALID,99.3161,VALID,8.28998,VALID,21.0055,VALID,107,VALID,1.28011,
2007-02-24, 17:54:00,VALID,914.548,VALID,0,VALID,99.5679,VALID,8.33553,VALID,20.9568,VALID,118,VALID,1.57175,
2007-02-24, 17:55:00,VALID,914.523,VALID,0,VALID,99.826,VALID,8.457,VALID,20.9176,VALID,97,VALID,1.26417,
2007-02-24, 17:56:00,VALID,914.508,VALID,0,VALID,99.5043,VALID,8.5481,VALID,20.8789,VALID,114,VALID,2.99033,
2007-02-24, 17:57:00,VALID,914.504,VALID,0,VALID,99.1597,VALID,8.50255,VALID,20.7947,VALID,106,VALID,2.48184,
2007-02-24, 17:58:00,VALID,914.488,VALID,0,VALID,99.0338,VALID,8.47218,VALID,20.7361,VALID,97,VALID,2.03906,
2007-02-24, 17:59:00,VALID,914.474,VALID,0,VALID,98.8291,VALID,8.51773,VALID,20.6484,VALID,105,VALID,1.96445,
2007-02-24, 18:00:00,VALID,914.456,VALID,0,VALID,99.0173,VALID,8.56328,VALID,20.5897,VALID,105,VALID,1.76097,
2007-02-24, 18:01:00,VALID,914.465,VALID,0,VALID,99.1343,VALID,8.66956,VALID,20.5605,VALID,119,VALID,1.51582,
2007-02-24, 18:02:00,VALID,914.475,VALID,0,VALID,99.2335,VALID,8.74548,VALID,20.5118,VALID,130,VALID,1.22905,
2007-02-24, 18:03:00,VALID,914.489,VALID,0,VALID,99.7561,VALID,8.82139,VALID,20.4886,VALID,131,VALID,0.544922,
2007-02-24, 18:04:00,VALID,914.517,VALID,0,VALID,99.9763,VALID,8.86694,VALID,20.5024,VALID,173,VALID,0.54212,
2007-02-24, 18:05:00,VALID,914.534,VALID,0,VALID,100,VALID,9.00359,VALID,20.5605,VALID,171,VALID,0.0686384,
2007-02-24, 18:06:00,VALID,914.528,VALID,0,VALID,100,VALID,9.18579,VALID,20.6311,VALID,171,VALID,0.10992,
2007-02-24, 18:07:00,VALID,914.509,VALID,0,VALID,100,VALID,9.38317,VALID,20.5692,VALID,240,VALID,0.679116,
2007-02-24, 18:08:00,VALID,914.503,VALID,0.2,VALID,100,VALID,9.55018,VALID,20.5305,VALID,261,VALID,0.456555,
2007-02-24, 18:09:00,VALID,914.49,VALID,0,VALID,100,VALID,9.67165,VALID,20.566,VALID,247,VALID,0.524528,
2007-02-24, 18:10:00,VALID,914.483,VALID,0,VALID,100,VALID,9.70201,VALID,20.5462,VALID,239,VALID,0.645241,
2007-02-24, 18:11:00,VALID,914.484,VALID,0,VALID,100,VALID,9.51982,VALID,20.537,VALID,256,VALID,0.576637,
2007-02-24, 18:12:00,VALID,914.499,VALID,0,VALID,99.987,VALID,9.10987,VALID,20.5148,VALID,256,VALID,0.300509,
2007-02-24, 18:13:00,VALID,914.537,VALID,0,VALID,100,VALID,8.63919,VALID,20.5238,VALID,256,VALID,0.0269531,
2007-02-24, 18:14:00,VALID,914.562,VALID,0,VALID,100,VALID,8.16852,VALID,20.579,VALID,256,VALID,0.000762195,
2007-02-24, 18:15:00,VALID,914.594,VALID,0,VALID,100,VALID,7.63711,VALID,20.6469,VALID,256,VALID,0.14234,
2007-02-24, 18:16:00,VALID,914.611,VALID,0,VALID,100,VALID,7.15125,VALID,20.6758,VALID,256,VALID,0.174079,
2007-02-24, 18:17:00,VALID,914.637,VALID,0,VALID,100,VALID,6.69576,VALID,20.7377,VALID,256,VALID,0.20484,
2007-02-24, 18:18:00,VALID,914.642,VALID,0,VALID,100,VALID,6.22508,VALID,20.7507,VALID,256,VALID,0.380269,
2007-02-24, 18:19:00,VALID,914.655,VALID,0,VALID,100,VALID,5.69367,VALID,20.718,VALID,256,VALID,0.434152,
2007-02-24, 18:20:00,VALID,914.671,VALID,0,VALID,100,VALID,5.0408,VALID,20.7118,VALID,256,VALID,0.512326,
2007-02-24, 18:21:00,VALID,914.687,VALID,0,VALID,100,VALID,4.41829,VALID,20.7085,VALID,256,VALID,0.508929,
2007-02-24, 18:22:00,VALID,914.707,VALID,0,VALID,100,VALID,3.56803,VALID,20.731,VALID,256,VALID,0.38228,
2007-02-24, 18:23:00,VALID,914.749,VALID,0,VALID,100,VALID,2.83924,VALID,20.721,VALID,250,VALID,0.803199,
2007-02-24, 18:24:00,VALID,914.791,VALID,0,VALID,100,VALID,2.53558,VALID,20.7502,VALID,230,VALID,0.779576,
2007-02-24, 18:25:00,VALID,914.832,VALID,0,VALID,100,VALID,2.11045,VALID,20.7599,VALID,243,VALID,0.849564,
2007-02-24, 18:26:00,VALID,914.914,VALID,0.2,VALID,100,VALID,1.73088,VALID,20.7337,VALID,221,VALID,0.650347,
2007-02-24, 18:27:00,VALID,915.001,VALID,0,VALID,100,VALID,1.4424,VALID,20.705,VALID,219,VALID,0.532924,
2007-02-24, 18:28:00,VALID,915.096,VALID,0,VALID,100,VALID,1.1691,VALID,20.6691,VALID,216,VALID,0.817578,
2007-02-24, 18:29:00,VALID,915.196,VALID,0,VALID,100,VALID,0.880621,VALID,20.6466,VALID,210,VALID,0.924414,
2007-02-24, 18:30:00,VALID,915.303,VALID,0,VALID,100,VALID,0.68324,VALID,20.5882,VALID,174,VALID,0.805432,
2007-02-24, 18:31:00,VALID,915.393,VALID,0,VALID,100,VALID,0.531409,VALID,20.5557,VALID,132,VALID,1.0206,
2007-02-24, 18:32:00,VALID,915.462,VALID,0,VALID,100,VALID,0.379578,VALID,20.5006,VALID,99,VALID,1.03609,
2007-02-24, 18:33:00,VALID,915.5,VALID,0,VALID,100,VALID,0.167014,VALID,20.4859,VALID,88,VALID,1.41016,
2007-02-24, 18:34:00,VALID,915.525,VALID,0,VALID,100,VALID,0.106282,VALID,20.4434,VALID,89,VALID,1.40341,
2007-02-24, 18:35:00,VALID,915.496,VALID,0,VALID,100,VALID,0.0759156,VALID,20.4202,VALID,81,VALID,1.39137,
2007-02-24, 18:36:00,VALID,915.461,VALID,0.2,VALID,100,VALID,0.0910987,VALID,20.394,VALID,77,VALID,1.26136,
2007-02-24, 18:37:00,VALID,915.405,VALID,0,VALID,100,VALID,0.0910987,VALID,20.3458,VALID,88,VALID,0.952951,
2007-02-24, 18:38:00,VALID,915.332,VALID,0,VALID,100,VALID,0.0759156,VALID,20.3171,VALID,86,VALID,0.72476,